sat.trackr.live / text

‹ back to catalog

STARLINK-35612

NORAD 66128 · 2025-237Q

PAYLOAD ACTIVE UNKNOWN

§ Identity

Operator
Country
US
Launch date
2025-10-22
Launch site
AFWTR
Launch vehicle
Mass (kg)
RCS (m²)

Purposes: comms

External: N2YO · Heavens-Above · Gunter

§ Orbital elements

Epoch: 2026-05-25T00:21:55.994688Z

Period
94.10 min
Inclination
53.1580°
Eccentricity
0.0000636
Mean motion
15.30223609 rev/d
Perigee alt
474.7 km
Apogee alt
475.6 km
Semi-major
6,853.3 km
B*
1.0616e-3
RAAN
45.2872°
Arg perigee
48.0915°
Mean anomaly
312.0140°
Rev number
3,429

§ Raw data

STARLINK-356121 66128U 25237Q   26145.01523142  .00031239  00000+0  10616-2 0  99912 66128  53.1580  45.2872 0000636  48.0915 312.0140 15.30223609 34297

JSON: /api/v1/satellites/66128 · /tle

For live sub-satellite position, see the globe view (requires WebGL).

§ Visibility from observer

Set your observer location to see the next 7 days of passes ≥ 10°. The values pass through the URL so the page stays shareable.

No JS? Fill the form by hand. The geolocation button needs JavaScript.